Weather History for KBKX - September, 2012

Change the Weather History Date:

Saturday, September 22, 2012

  Actual Average (KMDS) Record (KMDS)
Temperature  
Mean Temperature 42 °F -  
Max Temperature 55 °F 68 °F - (-1)
Min Temperature 30 °F 43 °F - (-1)
Degree Days  
Heating Degree Days 22    
Moisture  
Dew Point 27 °F    
Average Humidity 57    
Maximum Humidity 87    
Minimum Humidity 31    
Precipitation  
Precipitation 0.00 in - - ()
Sea Level Pressure  
Sea Level Pressure 30.25 in    
Wind  
Wind Speed 11 mph (NNW)    
Max Wind Speed 24 mph    
Max Gust Speed 28 mph    
Visibility 10 miles    
Events      
Averages and records for this station are not official NWS values.
T = Trace of Precipitation, MM = Missing Value Source: NWS Daily Summary

Daily Weather History Graph

Daily Weather History Graph

Search for Another Location

Airport or City:

Trip Planner

Search our weather history database for the weather conditions in past years. The results will help you decide how hot, cold, wet, or windy it might be!

Date:

Astronomy

Sep. 22, 2012 Rise Set
Actual Time 7:15 AM CDT 7:23 PM CDT
Civil Twilight 6:46 AM CDT 7:52 PM CDT
Nautical Twilight 6:12 AM CDT 8:26 PM CDT
Astronomical Twilight 5:37 AM CDT 9:01 PM CDT
Moon 2:47 PM CDT (9/22) No Moon Set
Length of Visible Light 13h 06m
Length of Day
12h 08m
Waxing Crescent, 49% of the Moon is Illuminated
Sep 22
Waxing Crescent
Sep 22
First Quarter
Sep 29
Full
Oct 8
Last Quarter
Oct 15
New

Hourly Weather History & Observations

Time (CDT) Temp. Windchill Dew Point Humidity Pressure Visibility Wind Dir Wind Speed Gust Speed Precip Events Conditions
12:15 AM 42.8 °F 34.8 °F 26.6 °F 53% 30.08 in 10.0 mi North 17.3 mph 25.3 mph N/A   Clear
12:35 AM 42.8 °F 33.3 °F 21.2 °F 42% 30.09 in 10.0 mi North 24.2 mph 27.6 mph N/A   Clear
12:55 AM 39.2 °F 30.2 °F 21.2 °F 49% 30.10 in 10.0 mi North 17.3 mph 27.6 mph N/A   Clear
1:15 AM 39.2 °F 31.2 °F 19.4 °F 45% 30.11 in 10.0 mi North 13.8 mph 17.3 mph N/A   Clear
1:35 AM 37.4 °F 30.8 °F 19.4 °F 48% 30.12 in 10.0 mi NNW 9.2 mph - N/A   Clear
1:55 AM 35.6 °F 28.6 °F 21.2 °F 56% 30.12 in 10.0 mi NNW 9.2 mph 16.1 mph N/A   Clear
2:15 AM 33.8 °F 27.0 °F 21.2 °F 60% 30.13 in 10.0 mi NNW 8.1 mph - N/A   Clear
2:35 AM 32.0 °F 24.2 °F 21.2 °F 64% 30.13 in 10.0 mi NNW 9.2 mph - N/A   Clear
2:55 AM 32.0 °F 24.2 °F 21.2 °F 64% 30.14 in 10.0 mi NW 9.2 mph - N/A   Clear
3:15 AM 30.2 °F 22.6 °F 21.2 °F 69% 30.14 in 10.0 mi NW 8.1 mph - N/A   Clear
3:35 AM 30.2 °F 21.3 °F 24.8 °F 80% 30.15 in 10.0 mi NNW 10.4 mph - N/A   Clear
3:55 AM 33.8 °F 25.8 °F 24.8 °F 70% 30.16 in 10.0 mi NW 10.4 mph - N/A   Clear
4:15 AM 32.0 °F 24.2 °F 24.8 °F 75% 30.17 in 10.0 mi NW 9.2 mph - N/A   Clear
4:35 AM 33.8 °F 26.4 °F 24.8 °F 70% 30.17 in 10.0 mi NW 9.2 mph - N/A   Clear
4:55 AM 33.8 °F 25.8 °F 26.6 °F 75% 30.18 in 10.0 mi NNW 10.4 mph - N/A   Clear
5:15 AM 33.8 °F 26.4 °F 26.6 °F 75% 30.19 in 10.0 mi NW 9.2 mph - N/A   Clear
5:35 AM 32.0 °F 24.8 °F 26.6 °F 80% 30.20 in 10.0 mi NW 8.1 mph - N/A   Clear
5:55 AM 32.0 °F 24.2 °F 26.6 °F 80% 30.21 in 10.0 mi NW 9.2 mph - N/A   Clear
6:15 AM 30.2 °F 22.6 °F 26.6 °F 86% 30.22 in 10.0 mi NW 8.1 mph - N/A   Clear
6:35 AM 32.0 °F 24.8 °F 26.6 °F 80% 30.23 in 10.0 mi NNW 8.1 mph - N/A   Clear
6:55 AM 30.2 °F 23.4 °F 26.6 °F 86% 30.23 in 10.0 mi NNW 6.9 mph - N/A   Clear
7:15 AM 30.2 °F 25.4 °F 26.6 °F 86% 30.25 in 10.0 mi NNW 4.6 mph - N/A   Clear
7:35 AM 30.2 °F 26.7 °F 26.6 °F 86% 30.26 in 10.0 mi NW 3.5 mph - N/A   Clear
7:55 AM 32.0 °F 25.6 °F 28.4 °F 87% 30.27 in 10.0 mi WNW 6.9 mph - N/A   Clear
8:15 AM 33.8 °F 27.0 °F 28.4 °F 81% 30.27 in 10.0 mi NW 8.1 mph - N/A   Clear
8:35 AM 35.6 °F 27.5 °F 30.2 °F 81% 30.28 in 10.0 mi NW 11.5 mph - N/A   Clear
8:55 AM 37.4 °F 29.3 °F 30.2 °F 75% 30.28 in 10.0 mi NNW 12.7 mph - N/A   Clear
9:15 AM 37.4 °F 28.5 °F 30.2 °F 75% 30.29 in 10.0 mi NNW 15.0 mph - N/A   Clear
9:55 AM 41.0 °F 33.1 °F 33.8 °F 76% 30.30 in 10.0 mi NNW 15.0 mph - N/A   Clear
10:15 AM 42.8 °F 37.0 °F 33.8 °F 70% 30.31 in 10.0 mi NNW 10.4 mph - N/A   Clear
10:35 AM 44.6 °F 38.8 °F 33.8 °F 66% 30.31 in 10.0 mi North 11.5 mph - N/A   Clear
10:55 AM 44.6 °F 38.8 °F 33.8 °F 66% 30.31 in 10.0 mi NNW 11.5 mph - N/A   Clear
11:15 AM 46.4 °F 41.1 °F 33.8 °F 62% 30.31 in 10.0 mi NNW 11.5 mph - N/A   Clear
11:35 AM 48.2 °F - 35.6 °F 62% 30.31 in 10.0 mi NNW 10.4 mph 16.1 mph N/A   Clear
11:55 AM 48.2 °F - 33.8 °F 58% 30.31 in 10.0 mi NNW 11.5 mph - N/A   Clear
12:15 PM 50.0 °F - 33.8 °F 54% 30.31 in 10.0 mi NNW 9.2 mph 17.3 mph N/A   Clear
12:35 PM 51.8 °F - 32.0 °F 47% 30.31 in 10.0 mi NW 10.4 mph 16.1 mph N/A   Partly Cloudy
12:55 PM 51.8 °F - 33.8 °F 50% 30.31 in 10.0 mi North 11.5 mph 18.4 mph N/A   Partly Cloudy
1:15 PM 53.6 °F - 32.0 °F 44% 30.30 in 10.0 mi NW 15.0 mph 21.9 mph N/A   Partly Cloudy
1:35 PM 53.6 °F - 30.2 °F 41% 30.30 in 10.0 mi NW 15.0 mph - N/A   Partly Cloudy
1:55 PM 53.6 °F - 30.2 °F 41% 30.30 in 10.0 mi NW 11.5 mph 17.3 mph N/A   Clear
2:15 PM 53.6 °F - 32.0 °F 44% 30.29 in 10.0 mi NW 8.1 mph 18.4 mph N/A   Partly Cloudy
2:35 PM 53.6 °F - 32.0 °F 44% 30.29 in 10.0 mi NW 12.7 mph 19.6 mph N/A   Scattered Clouds
2:55 PM 53.6 °F - 30.2 °F 41% 30.29 in 10.0 mi NNW 9.2 mph - N/A   Partly Cloudy
3:15 PM 55.4 °F - 28.4 °F 36% 30.29 in 10.0 mi NNW 11.5 mph 18.4 mph N/A   Clear
3:35 PM 55.4 °F - 30.2 °F 38% 30.28 in 10.0 mi NW 11.5 mph 20.7 mph N/A   Clear
3:55 PM 55.4 °F - 30.2 °F 38% 30.28 in 10.0 mi NNW 12.7 mph 18.4 mph N/A   Clear
4:15 PM 55.4 °F - 28.4 °F 36% 30.29 in 10.0 mi NW 10.4 mph 17.3 mph N/A   Clear
4:35 PM 55.4 °F - 26.6 °F 33% 30.28 in 10.0 mi WNW 12.7 mph 17.3 mph N/A   Clear
4:55 PM 55.4 °F - 26.6 °F 33% 30.28 in 10.0 mi NNW 11.5 mph - N/A   Clear
5:15 PM 55.4 °F - 24.8 °F 31% 30.27 in 10.0 mi NW 11.5 mph - N/A   Clear
5:35 PM 55.4 °F - 24.8 °F 31% 30.28 in 10.0 mi NW 11.5 mph - N/A   Clear
5:55 PM 53.6 °F - 24.8 °F 33% 30.28 in 10.0 mi NW 11.5 mph - N/A   Clear
6:15 PM 53.6 °F - 24.8 °F 33% 30.28 in 10.0 mi NW 9.2 mph - N/A   Clear
6:35 PM 53.6 °F - 24.8 °F 33% 30.28 in 10.0 mi NW 9.2 mph - N/A   Clear
6:55 PM 50.0 °F - 24.8 °F 37% 30.28 in 10.0 mi NW 8.1 mph - N/A   Clear
7:15 PM 48.2 °F - 24.8 °F 40% 30.28 in 10.0 mi NW 8.1 mph - N/A   Clear
7:35 PM 46.4 °F 42.9 °F 24.8 °F 43% 30.28 in 10.0 mi NW 6.9 mph - N/A   Clear
7:55 PM 44.6 °F 40.7 °F 23.0 °F 43% 30.28 in 10.0 mi NW 6.9 mph - N/A   Clear
8:15 PM 44.6 °F 41.4 °F 23.0 °F 43% 30.28 in 10.0 mi NW 5.8 mph - N/A   Clear
8:35 PM 42.8 °F 41.1 °F 23.0 °F 46% 30.29 in 10.0 mi North 3.5 mph - N/A   Clear
8:55 PM 44.6 °F 42.2 °F 24.8 °F 46% 30.29 in 10.0 mi North 4.6 mph - N/A   Clear
9:15 PM 41.0 °F 39.0 °F 24.8 °F 53% 30.29 in 10.0 mi NNE 3.5 mph - N/A   Clear
9:35 PM 41.0 °F - 24.8 °F 53% 30.30 in 10.0 mi Calm Calm - N/A   Clear
9:55 PM 42.8 °F - 24.8 °F 49% 30.30 in 10.0 mi Calm Calm - N/A   Clear
10:15 PM 41.0 °F - 24.8 °F 53% 30.30 in 9.0 mi Calm Calm - N/A   Clear
10:35 PM 37.4 °F - 26.6 °F 65% 30.30 in 10.0 mi Calm Calm - N/A   Clear
10:55 PM 35.6 °F - 24.8 °F 65% 30.30 in 10.0 mi Calm Calm - N/A   Clear
11:15 PM 35.6 °F - 26.6 °F 70% 30.31 in 10.0 mi Calm Calm - N/A   Clear
11:35 PM 33.8 °F - 24.8 °F 70% 30.31 in 10.0 mi Calm Calm - N/A   Clear
11:55 PM 33.8 °F - 26.6 °F 75% 30.32 in 10.0 mi Calm Calm - N/A   Clear